Time,TemperatureF,DewpointF,PressureIn,WindDirection,WindDirectionDegrees,WindSpeedMPH,WindSpeedGustMPH,Humidity,HourlyPrecipIn,Conditions,Clouds,dailyrainin,SolarRadiationWatts/m^2,SoftwareType,DateUTC
2013-06-03 00:03:00,48.8,44.2,29.96,WSW,244,0.0,0.0,84,0.00,,SKC,0.00,0.00,VWS V14.00,2013-06-03 05:03:00,
2013-06-03 00:10:00,48.7,44.1,29.96,WSW,244,0.0,0.0,84,0.00,,SKC,0.00,0.00,VWS V14.00,2013-06-03 05:10:00,
2013-06-03 00:15:00,48.7,44.7,29.96,WSW,244,0.0,0.0,86,0.00,,SKC,0.00,0.00,VWS V14.00,2013-06-03 05:15:00,
2013-06-03 00:20:00,48.7,44.7,29.96,WSW,244,0.0,0.0,86,0.00,,SKC,0.00,0.00,VWS V14.00,2013-06-03 05:20:00,
2013-06-03 00:25:00,48.6,44.6,29.97,WSW,244,0.0,0.0,86,0.00,,SKC,0.00,0.00,VWS V14.00,2013-06-03 05:25:00,
2013-06-03 00:30:00,48.5,44.2,29.97,WSW,244,0.0,0.0,85,0.00,,SKC,0.00,0.00,VWS V14.00,2013-06-03 05:30:00,
2013-06-03 00:35:00,48.3,44.6,29.97,WSW,244,0.0,0.0,87,0.00,,SKC,0.00,0.00,VWS V14.00,2013-06-03 05:35:00,
2013-06-03 00:40:00,48.3,44.9,29.97,WSW,244,0.0,0.0,88,0.00,,SKC,0.00,0.00,VWS V14.00,2013-06-03 05:40:00,
2013-06-03 00:45:00,48.2,44.8,29.97,WSW,244,0.0,0.0,88,0.00,,SKC,0.00,0.00,VWS V14.00,2013-06-03 05:45:00,
2013-06-03 00:50:00,47.9,44.5,29.96,WSW,244,0.0,1.0,88,0.00,,SKC,0.00,0.00,VWS V14.00,2013-06-03 05:50:00,
2013-06-03 00:55:00,47.7,44.6,29.97,WSW,244,1.0,2.0,89,0.00,,SKC,0.00,0.00,VWS V14.00,2013-06-03 05:55:00,
2013-06-03 01:00:00,47.5,44.4,29.97,WSW,244,2.0,2.0,89,0.00,,SKC,0.00,0.00,VWS V14.00,2013-06-03 06:00:00,
2013-06-03 01:05:00,47.1,44.0,29.96,WSW,244,0.0,0.0,89,0.00,,SKC,0.00,0.00,VWS V14.00,2013-06-03 06:05:00,
2013-06-03 01:10:00,47.0,44.2,29.96,WSW,244,0.0,1.0,90,0.00,,SKC,0.00,0.00,VWS V14.00,2013-06-03 06:10:00,
2013-06-03 01:15:00,46.9,44.1,29.96,WSW,244,0.0,0.0,90,0.00,,SKC,0.00,0.00,VWS V14.00,2013-06-03 06:15:00,
2013-06-03 01:20:00,46.8,44.0,29.96,WSW,244,0.0,0.0,90,0.00,,SKC,0.00,0.00,VWS V14.00,2013-06-03 06:20:00,
2013-06-03 01:25:00,46.8,44.0,29.96,WSW,244,0.0,0.0,90,0.00,,SKC,0.00,0.00,VWS V14.00,2013-06-03 06:25:00,
2013-06-03 01:30:00,46.7,43.9,29.96,WSW,244,0.0,0.0,90,0.00,,SKC,0.00,0.00,VWS V14.00,2013-06-03 06:30:00,
2013-06-03 01:35:00,46.7,43.9,29.96,WSW,244,0.0,0.0,90,0.00,,SKC,0.00,0.00,VWS V14.00,2013-06-03 06:35:00,
2013-06-03 01:40:00,46.6,43.8,29.97,WSW,244,0.0,0.0,90,0.00,,SKC,0.00,0.00,VWS V14.00,2013-06-03 06:40:00,
2013-06-03 01:45:00,46.3,43.2,29.96,WSW,244,0.0,0.0,89,0.00,,SKC,0.00,0.00,VWS V14.00,2013-06-03 06:45:00,
2013-06-03 01:50:00,46.2,43.1,29.96,WSW,244,0.0,0.0,89,0.00,,SKC,0.00,0.00,VWS V14.00,2013-06-03 06:50:00,
2013-06-03 01:55:00,46.0,43.2,29.96,WSW,244,0.0,0.0,90,0.00,,SKC,0.00,0.00,VWS V14.00,2013-06-03 06:55:00,
2013-06-03 02:00:00,45.9,43.4,29.96,WSW,244,0.0,0.0,91,0.00,,SKC,0.00,0.00,VWS V14.00,2013-06-03 07:00:00,
2013-06-03 02:05:00,45.8,43.3,29.96,WSW,244,0.0,0.0,91,0.00,,SKC,0.00,0.00,VWS V14.00,2013-06-03 07:05:00,
2013-06-03 02:10:00,45.8,43.6,29.96,WSW,244,0.0,0.0,92,0.00,,SKC,0.00,0.00,VWS V14.00,2013-06-03 07:10:00,
2013-06-03 02:15:00,45.8,43.6,29.96,WSW,244,0.0,0.0,92,0.00,,SKC,0.00,0.00,VWS V14.00,2013-06-03 07:15:00,
2013-06-03 02:20:00,45.8,43.6,29.96,WSW,244,0.0,0.0,92,0.00,,SKC,0.00,0.00,VWS V14.00,2013-06-03 07:20:00,
2013-06-03 02:25:00,46.0,44.1,29.96,WSW,244,0.0,0.0,93,0.00,,SKC,0.00,0.00,VWS V14.00,2013-06-03 07:25:00,
2013-06-03 02:30:00,46.1,44.2,29.96,WSW,244,0.0,0.0,93,0.00,,SKC,0.00,0.00,VWS V14.00,2013-06-03 07:30:00,
2013-06-03 02:35:00,46.0,44.1,29.96,WSW,244,0.0,0.0,93,0.00,,SKC,0.00,0.00,VWS V14.00,2013-06-03 07:35:00,
2013-06-03 02:40:00,45.9,43.7,29.96,WSW,244,0.0,0.0,92,0.00,,SKC,0.00,0.00,VWS V14.00,2013-06-03 07:40:00,
2013-06-03 02:45:00,45.7,43.5,29.95,WSW,244,0.0,0.0,92,0.00,,SKC,0.00,0.00,VWS V14.00,2013-06-03 07:45:00,
2013-06-03 02:50:00,45.4,43.2,29.95,WSW,244,0.0,0.0,92,0.00,,SKC,0.00,0.00,VWS V14.00,2013-06-03 07:50:00,
2013-06-03 02:55:00,45.1,42.6,29.95,WSW,244,0.0,0.0,91,0.00,,SKC,0.00,0.00,VWS V14.00,2013-06-03 07:55:00,
2013-06-03 03:00:00,44.9,42.4,29.95,WSW,244,0.0,0.0,91,0.00,,SKC,0.00,0.00,VWS V14.00,2013-06-03 08:00:00,
2013-06-03 03:05:00,44.6,42.1,29.95,WSW,244,0.0,0.0,91,0.00,,SKC,0.00,0.00,VWS V14.00,2013-06-03 08:05:00,
2013-06-03 03:10:00,44.4,41.9,29.95,WSW,244,0.0,0.0,91,0.00,,SKC,0.00,0.00,VWS V14.00,2013-06-03 08:10:00,
2013-06-03 03:15:00,44.3,41.8,29.95,WSW,244,0.0,0.0,91,0.00,,SKC,0.00,0.00,VWS V14.00,2013-06-03 08:15:00,
2013-06-03 03:20:00,44.2,42.0,29.95,WSW,244,0.0,0.0,92,0.00,,SKC,0.00,0.00,VWS V14.00,2013-06-03 08:20:00,
2013-06-03 03:25:00,44.2,42.0,29.95,WSW,244,0.0,0.0,92,0.00,,SKC,0.00,0.00,VWS V14.00,2013-06-03 08:25:00,
2013-06-03 03:30:00,44.2,42.0,29.95,WSW,244,0.0,0.0,92,0.00,,SKC,0.00,0.00,VWS V14.00,2013-06-03 08:30:00,
2013-06-03 03:36:00,44.2,42.0,29.95,WSW,244,0.0,0.0,92,0.00,,SKC,0.00,0.00,VWS V14.00,2013-06-03 08:36:00,
2013-06-03 03:41:00,44.2,42.3,29.95,WSW,244,0.0,0.0,93,0.00,,SKC,0.00,0.00,VWS V14.00,2013-06-03 08:41:00,
2013-06-03 03:46:00,44.2,42.3,29.95,WSW,244,0.0,0.0,93,0.00,,SKC,0.00,0.00,VWS V14.00,2013-06-03 08:46:00,
2013-06-03 03:51:00,44.2,42.3,29.95,WSW,244,0.0,0.0,93,0.00,,SKC,0.00,0.00,VWS V14.00,2013-06-03 08:51:00,
2013-06-03 03:56:00,44.2,42.3,29.95,WSW,244,0.0,0.0,93,0.00,,SKC,0.00,0.00,VWS V14.00,2013-06-03 08:56:00,
2013-06-03 04:01:00,44.2,42.3,29.95,WSW,244,0.0,0.0,93,0.00,,SKC,0.00,0.00,VWS V14.00,2013-06-03 09:01:00,
2013-06-03 04:06:00,44.1,42.2,29.95,WSW,244,0.0,0.0,93,0.00,,SKC,0.00,0.00,VWS V14.00,2013-06-03 09:06:00,
2013-06-03 04:11:00,44.1,42.2,29.95,WSW,244,0.0,0.0,93,0.00,,SKC,0.00,0.00,VWS V14.00,2013-06-03 09:11:00,
2013-06-03 04:16:00,44.1,42.2,29.95,WSW,244,0.0,0.0,93,0.00,,SKC,0.00,0.00,VWS V14.00,2013-06-03 09:16:00,
2013-06-03 04:21:00,44.1,42.2,29.95,WSW,244,0.0,0.0,93,0.00,,SKC,0.00,0.00,VWS V14.00,2013-06-03 09:21:00,
2013-06-03 04:26:00,44.1,42.2,29.95,WSW,244,0.0,0.0,93,0.00,,SKC,0.00,0.00,VWS V14.00,2013-06-03 09:26:00,
2013-06-03 04:31:00,44.0,42.4,29.95,WSW,244,0.0,0.0,94,0.00,,SKC,0.00,0.00,VWS V14.00,2013-06-03 09:31:00,
2013-06-03 04:36:00,44.0,42.4,29.95,WSW,244,0.0,0.0,94,0.00,,SKC,0.00,0.00,VWS V14.00,2013-06-03 09:36:00,
2013-06-03 04:43:00,44.2,42.6,29.95,WSW,244,0.0,0.0,94,0.00,,SKC,0.00,0.00,VWS V14.00,2013-06-03 09:43:00,
2013-06-03 04:48:00,44.3,43.0,29.95,WSW,244,0.0,0.0,95,0.00,,SKC,0.00,0.00,VWS V14.00,2013-06-03 09:48:00,
2013-06-03 04:53:00,44.3,42.7,29.95,WSW,244,0.0,0.0,94,0.00,,SKC,0.00,0.00,VWS V14.00,2013-06-03 09:53:00,
2013-06-03 04:58:00,44.2,42.6,29.95,WSW,244,0.0,0.0,94,0.00,,SKC,0.00,0.00,VWS V14.00,2013-06-03 09:58:00,
2013-06-03 05:03:00,44.1,42.5,29.95,WSW,244,0.0,0.0,94,0.00,,SKC,0.00,0.00,VWS V14.00,2013-06-03 10:03:00,
2013-06-03 05:08:00,43.9,42.3,29.95,WSW,244,0.0,0.0,94,0.00,,SKC,0.00,0.00,VWS V14.00,2013-06-03 10:08:00,
2013-06-03 05:13:00,43.7,41.8,29.95,WSW,244,0.0,0.0,93,0.00,,SKC,0.00,0.00,VWS V14.00,2013-06-03 10:13:00,
2013-06-03 05:18:00,43.7,42.1,29.95,WSW,244,0.0,0.0,94,0.00,,SKC,0.00,0.00,VWS V14.00,2013-06-03 10:18:00,
2013-06-03 05:23:00,43.6,42.0,29.96,WSW,244,0.0,0.0,94,0.00,,SKC,0.00,0.00,VWS V14.00,2013-06-03 10:23:00,
2013-06-03 05:28:00,43.6,42.0,29.96,WSW,244,0.0,0.0,94,0.00,,SKC,0.00,0.00,VWS V14.00,2013-06-03 10:28:00,
2013-06-03 05:33:00,43.6,42.0,29.96,WSW,244,0.0,0.0,94,0.00,,SKC,0.00,0.00,VWS V14.00,2013-06-03 10:33:00,
2013-06-03 05:38:00,43.6,42.0,29.96,WSW,244,0.0,0.0,94,0.00,,SKC,0.00,5.00,VWS V14.00,2013-06-03 10:38:00,
2013-06-03 05:43:00,43.6,42.0,29.95,WSW,244,0.0,0.0,94,0.00,,SKC,0.00,7.00,VWS V14.00,2013-06-03 10:43:00,
2013-06-03 05:48:00,43.6,42.0,29.95,WSW,244,0.0,0.0,94,0.00,,SKC,0.00,7.00,VWS V14.00,2013-06-03 10:48:00,
2013-06-03 05:53:00,43.6,42.0,29.95,WSW,244,0.0,0.0,94,0.00,,SKC,0.00,7.00,VWS V14.00,2013-06-03 10:53:00,
2013-06-03 05:58:00,43.6,42.0,29.96,WSW,244,0.0,0.0,94,0.00,,SKC,0.00,7.00,VWS V14.00,2013-06-03 10:58:00,
2013-06-03 06:03:00,43.6,42.0,29.96,WSW,244,0.0,0.0,94,0.00,,SKC,0.00,7.00,VWS V14.00,2013-06-03 11:03:00,
2013-06-03 06:08:00,43.6,42.0,29.96,WSW,244,0.0,0.0,94,0.00,,SKC,0.00,28.00,VWS V14.00,2013-06-03 11:08:00,
2013-06-03 06:13:00,43.9,42.6,29.96,WSW,244,0.0,2.0,95,0.00,,SKC,0.00,35.00,VWS V14.00,2013-06-03 11:13:00,
2013-06-03 06:18:00,44.2,43.1,29.96,WSW,244,0.0,2.0,96,0.00,,SKC,0.00,37.00,VWS V14.00,2013-06-03 11:18:00,
2013-06-03 06:23:00,44.6,43.5,29.96,WSW,244,1.0,2.0,96,0.00,,SKC,0.00,37.00,VWS V14.00,2013-06-03 11:23:00,
2013-06-03 06:28:00,44.9,43.8,29.96,WSW,244,1.0,3.0,96,0.00,,SKC,0.00,37.00,VWS V14.00,2013-06-03 11:28:00,
2013-06-03 06:33:00,45.0,43.9,29.97,WSW,244,1.0,2.0,96,0.00,,SKC,0.00,35.00,VWS V14.00,2013-06-03 11:33:00,
2013-06-03 06:38:00,45.3,44.2,29.97,WSW,244,1.0,2.0,96,0.00,,SKC,0.00,32.00,VWS V14.00,2013-06-03 11:38:00,
2013-06-03 06:43:00,45.6,44.5,29.97,WSW,244,0.0,2.0,96,0.00,,SKC,0.00,28.00,VWS V14.00,2013-06-03 11:43:00,
2013-06-03 06:48:00,45.9,44.8,29.97,WSW,244,0.0,1.0,96,0.00,,SKC,0.00,28.00,VWS V14.00,2013-06-03 11:48:00,
2013-06-03 06:53:00,46.1,44.8,29.97,WSW,244,0.0,1.0,95,0.00,,SKC,0.00,32.00,VWS V14.00,2013-06-03 11:53:00,
2013-06-03 06:58:00,46.3,45.0,29.97,WSW,244,0.0,1.0,95,0.00,,SKC,0.00,33.00,VWS V14.00,2013-06-03 11:58:00,
2013-06-03 07:03:00,46.7,45.3,29.97,WSW,244,1.0,2.0,95,0.00,,SKC,0.00,39.00,VWS V14.00,2013-06-03 12:03:00,
2013-06-03 07:08:00,47.1,45.7,29.97,WSW,244,2.0,2.0,95,0.00,,SKC,0.00,46.00,VWS V14.00,2013-06-03 12:08:00,
2013-06-03 07:13:00,47.6,46.2,29.97,WSW,244,0.0,2.0,95,0.00,,SKC,0.00,47.00,VWS V14.00,2013-06-03 12:13:00,
2013-06-03 07:18:00,48.0,46.1,29.97,WSW,244,0.0,1.0,93,0.00,,SKC,0.00,49.00,VWS V14.00,2013-06-03 12:18:00,
2013-06-03 07:23:00,48.3,45.8,29.97,WSW,244,0.0,1.0,91,0.00,,SKC,0.00,51.00,VWS V14.00,2013-06-03 12:23:00,
2013-06-03 07:28:00,48.5,45.7,29.97,WSW,244,0.0,1.0,90,0.00,,SKC,0.00,56.00,VWS V14.00,2013-06-03 12:28:00,
2013-06-03 07:33:00,48.7,45.6,29.97,WSW,244,0.0,0.0,89,0.00,,SKC,0.00,79.00,VWS V14.00,2013-06-03 12:33:00,
2013-06-03 07:38:00,49.2,46.4,29.97,WSW,244,0.0,0.0,90,0.00,,SKC,0.00,114.00,VWS V14.00,2013-06-03 12:38:00,
2013-06-03 07:43:00,49.7,47.2,29.97,ESE,109,0.0,2.0,91,0.00,,SKC,0.00,181.00,VWS V14.00,2013-06-03 12:43:00,
2013-06-03 07:48:00,50.6,47.2,29.97,ESE,109,0.0,2.0,88,0.00,,SKC,0.00,316.00,VWS V14.00,2013-06-03 12:48:00,
2013-06-03 07:53:00,51.8,47.1,29.97,ESE,117,2.0,4.0,84,0.00,,SKC,0.00,330.00,VWS V14.00,2013-06-03 12:53:00,
2013-06-03 07:58:00,53.1,47.8,29.97,SE,134,2.0,4.0,82,0.00,,SKC,0.00,345.00,VWS V14.00,2013-06-03 12:58:00,
2013-06-03 08:03:00,54.1,48.1,29.97,ESE,107,1.0,4.0,80,0.00,,SKC,0.00,359.00,VWS V14.00,2013-06-03 13:03:00,
2013-06-03 08:08:00,55.0,47.6,29.97,ESE,117,3.0,6.0,76,0.00,,SKC,0.00,376.00,VWS V14.00,2013-06-03 13:08:00,
2013-06-03 08:13:00,55.8,48.4,29.97,SE,126,5.0,5.0,76,0.00,,SKC,0.00,399.00,VWS V14.00,2013-06-03 13:13:00,
2013-06-03 08:18:00,56.5,48.0,29.97,ESE,112,3.0,6.0,73,0.00,,SKC,0.00,422.00,VWS V14.00,2013-06-03 13:18:00,
2013-06-03 08:23:00,56.9,47.6,29.97,ESE,112,4.0,6.0,71,0.00,,SKC,0.00,443.00,VWS V14.00,2013-06-03 13:23:00,
2013-06-03 08:28:00,57.4,47.3,29.97,ESE,104,2.0,7.0,69,0.00,,SKC,0.00,462.00,VWS V14.00,2013-06-03 13:28:00,
2013-06-03 08:33:00,57.9,47.8,29.98,East,101,4.0,7.0,69,0.00,,SKC,0.00,478.00,VWS V14.00,2013-06-03 13:33:00,
2013-06-03 08:38:00,58.4,48.3,29.98,SE,124,6.0,8.0,69,0.00,,SKC,0.00,492.00,VWS V14.00,2013-06-03 13:38:00,
2013-06-03 08:43:00,58.9,46.8,29.98,ESE,119,4.0,9.0,64,0.00,,SKC,0.00,504.00,VWS V14.00,2013-06-03 13:43:00,
2013-06-03 08:49:00,59.4,46.4,29.98,ESE,106,2.0,6.0,62,0.00,,SKC,0.00,531.00,VWS V14.00,2013-06-03 13:49:00,
2013-06-03 08:54:00,59.7,46.7,29.98,ESE,123,3.0,7.0,62,0.00,,SKC,0.00,534.00,VWS V14.00,2013-06-03 13:54:00,
2013-06-03 08:59:00,60.2,47.6,29.98,SSE,155,7.0,9.0,63,0.00,,SKC,0.00,557.00,VWS V14.00,2013-06-03 13:59:00,
2013-06-03 09:04:00,60.6,46.2,29.98,SE,130,4.0,5.0,59,0.00,,SKC,0.00,573.00,VWS V14.00,2013-06-03 14:04:00,
2013-06-03 09:09:00,61.2,47.2,29.98,ESE,112,6.0,6.0,60,0.00,,SKC,0.00,592.00,VWS V14.00,2013-06-03 14:09:00,
2013-06-03 09:14:00,61.4,47.4,29.98,ENE,71,3.0,5.0,60,0.00,,SKC,0.00,610.00,VWS V14.00,2013-06-03 14:14:00,
2013-06-03 09:19:00,61.9,47.4,29.97,ENE,76,2.0,4.0,59,0.00,,SKC,0.00,633.00,VWS V14.00,2013-06-03 14:19:00,
2013-06-03 09:24:00,62.2,46.8,29.97,East,99,9.0,9.0,57,0.00,,SKC,0.00,608.00,VWS V14.00,2013-06-03 14:24:00,
2013-06-03 09:29:00,62.4,46.5,29.96,East,88,3.0,9.0,56,0.00,,SKC,0.00,679.00,VWS V14.00,2013-06-03 14:29:00,
2013-06-03 09:34:00,62.8,46.4,29.96,ESE,110,6.0,10.0,55,0.00,,SKC,0.00,710.00,VWS V14.00,2013-06-03 14:34:00,
2013-06-03 09:39:00,63.0,46.1,29.97,SE,128,4.0,5.0,54,0.00,,SKC,0.00,717.00,VWS V14.00,2013-06-03 14:39:00,
2013-06-03 09:44:00,63.3,46.4,29.97,SE,136,5.0,7.0,54,0.00,,SKC,0.00,584.00,VWS V14.00,2013-06-03 14:44:00,
2013-06-03 09:50:00,63.7,46.8,29.97,SE,140,6.0,6.0,54,0.00,,SKC,0.00,599.00,VWS V14.00,2013-06-03 14:50:00,
2013-06-03 09:55:00,63.9,46.0,29.96,SSW,213,4.0,4.0,52,0.00,,SKC,0.00,679.00,VWS V14.00,2013-06-03 14:55:00,
2013-06-03 10:00:00,64.5,48.0,29.96,SE,138,5.0,7.0,55,0.00,,SKC,0.00,749.00,VWS V14.00,2013-06-03 15:00:00,
2013-06-03 10:05:00,65.0,47.5,29.96,SSE,149,5.0,9.0,53,0.00,,SKC,0.00,680.00,VWS V14.00,2013-06-03 15:05:00,
2013-06-03 10:10:00,65.3,47.2,29.96,SSE,167,1.0,2.0,52,0.00,,SKC,0.00,779.00,VWS V14.00,2013-06-03 15:10:00,
2013-06-03 10:15:00,65.8,46.7,29.96,SSE,159,3.0,6.0,50,0.00,,SKC,0.00,796.00,VWS V14.00,2013-06-03 15:15:00,
2013-06-03 10:20:00,66.3,46.6,29.96,SE,126,1.0,7.0,49,0.00,,SKC,0.00,816.00,VWS V14.00,2013-06-03 15:20:00,
2013-06-03 10:25:00,66.6,46.9,29.96,South,171,2.0,10.0,49,0.00,,SKC,0.00,823.00,VWS V14.00,2013-06-03 15:25:00,
2013-06-03 10:30:00,66.8,47.0,29.96,ESE,122,3.0,6.0,49,0.00,,SKC,0.00,814.00,VWS V14.00,2013-06-03 15:30:00,
2013-06-03 10:35:00,67.0,47.8,29.96,SSE,167,6.0,9.0,50,0.00,,SKC,0.00,830.00,VWS V14.00,2013-06-03 15:35:00,
2013-06-03 10:40:00,67.2,46.9,29.96,SSW,203,7.0,11.0,48,0.00,,SKC,0.00,831.00,VWS V14.00,2013-06-03 15:40:00,
2013-06-03 10:45:00,67.2,46.9,29.96,ESE,116,5.0,9.0,48,0.00,,SKC,0.00,840.00,VWS V14.00,2013-06-03 15:45:00,
2013-06-03 10:50:00,67.2,46.9,29.96,WSW,253,5.0,6.0,48,0.00,,SKC,0.00,847.00,VWS V14.00,2013-06-03 15:50:00,
2013-06-03 10:55:00,67.4,47.0,29.96,SSE,151,3.0,4.0,48,0.00,,SKC,0.00,861.00,VWS V14.00,2013-06-03 15:55:00,
2013-06-03 11:00:00,67.7,46.2,29.96,SE,140,7.0,8.0,46,0.00,,SKC,0.00,854.00,VWS V14.00,2013-06-03 16:00:00,
2013-06-03 11:05:00,67.8,48.5,29.96,ESE,105,1.0,4.0,50,0.00,,SKC,0.00,835.00,VWS V14.00,2013-06-03 16:05:00,
2013-06-03 11:10:00,67.8,46.3,29.96,SE,140,7.0,11.0,46,0.00,,SKC,0.00,439.00,VWS V14.00,2013-06-03 16:10:00,
2013-06-03 11:15:00,67.1,45.1,29.96,ESE,119,3.0,5.0,45,0.00,,SKC,0.00,459.00,VWS V14.00,2013-06-03 16:15:00,
2013-06-03 11:20:00,66.7,47.5,29.96,SSE,150,4.0,4.0,50,0.00,,SKC,0.00,436.00,VWS V14.00,2013-06-03 16:20:00,
2013-06-03 11:25:00,66.7,47.0,29.96,South,191,2.0,8.0,49,0.00,,SKC,0.00,359.00,VWS V14.00,2013-06-03 16:25:00,
2013-06-03 11:30:00,66.6,45.8,29.96,SE,126,3.0,5.0,47,0.00,,SKC,0.00,345.00,VWS V14.00,2013-06-03 16:30:00,
2013-06-03 11:35:00,66.3,45.5,29.95,SE,125,2.0,3.0,47,0.00,,SKC,0.00,355.00,VWS V14.00,2013-06-03 16:35:00,
2013-06-03 11:40:00,66.1,46.4,29.95,SSE,157,3.0,7.0,49,0.00,,SKC,0.00,438.00,VWS V14.00,2013-06-03 16:40:00,
2013-06-03 11:45:00,66.3,46.0,29.95,South,186,2.0,5.0,48,0.00,,SKC,0.00,582.00,VWS V14.00,2013-06-03 16:45:00,
2013-06-03 11:50:00,66.6,46.3,29.94,SSW,205,3.0,3.0,48,0.00,,SKC,0.00,490.00,VWS V14.00,2013-06-03 16:50:00,
2013-06-03 11:55:00,66.9,46.0,29.94,ESE,109,3.0,8.0,47,0.00,,SKC,0.00,483.00,VWS V14.00,2013-06-03 16:55:00,
2013-06-03 12:00:00,67.0,46.1,29.94,East,86,3.0,7.0,47,0.00,,SKC,0.00,610.00,VWS V14.00,2013-06-03 17:00:00,
2013-06-03 12:05:00,67.0,46.7,29.94,East,88,5.0,7.0,48,0.00,,SKC,0.00,510.00,VWS V14.00,2013-06-03 17:05:00,
2013-06-03 12:10:00,66.8,44.8,29.95,ESE,115,3.0,7.0,45,0.00,,SKC,0.00,383.00,VWS V14.00,2013-06-03 17:10:00,
2013-06-03 12:15:00,66.8,45.4,29.95,SSE,157,3.0,5.0,46,0.00,,SKC,0.00,345.00,VWS V14.00,2013-06-03 17:15:00,
2013-06-03 12:20:00,66.7,45.3,29.94,SE,144,6.0,12.0,46,0.00,,SKC,0.00,292.00,VWS V14.00,2013-06-03 17:20:00,
2013-06-03 12:25:00,66.3,44.9,29.93,East,98,2.0,6.0,46,0.00,,SKC,0.00,195.00,VWS V14.00,2013-06-03 17:25:00,
2013-06-03 12:30:00,65.8,45.0,29.93,SSE,153,3.0,11.0,47,0.00,,SKC,0.00,218.00,VWS V14.00,2013-06-03 17:30:00,
2013-06-03 12:35:00,65.7,45.5,29.94,SSE,160,2.0,3.0,48,0.00,,SKC,0.00,267.00,VWS V14.00,2013-06-03 17:35:00,
2013-06-03 12:40:00,65.6,44.3,29.94,South,179,1.0,9.0,46,0.00,,SKC,0.00,148.00,VWS V14.00,2013-06-03 17:40:00,
2013-06-03 12:46:00,65.4,45.2,29.94,SE,131,6.0,9.0,48,0.00,,SKC,0.00,118.00,VWS V14.00,2013-06-03 17:46:00,
2013-06-03 12:51:00,65.2,44.5,29.94,South,178,3.0,5.0,47,0.00,,SKC,0.00,155.00,VWS V14.00,2013-06-03 17:51:00,
2013-06-03 12:56:00,65.2,45.6,29.95,South,182,2.0,3.0,49,0.00,,SKC,0.00,127.00,VWS V14.00,2013-06-03 17:56:00,
2013-06-03 13:01:00,65.0,44.8,29.94,SE,144,4.0,4.0,48,0.00,,SKC,0.00,132.00,VWS V14.00,2013-06-03 18:01:00,
2013-06-03 13:06:00,64.9,45.3,29.94,ESE,122,4.0,5.0,49,0.00,,SKC,0.00,160.00,VWS V14.00,2013-06-03 18:06:00,
2013-06-03 13:11:00,64.8,45.2,29.93,ESE,107,3.0,5.0,49,0.00,,SKC,0.00,137.00,VWS V14.00,2013-06-03 18:11:00,
2013-06-03 13:16:00,64.6,45.0,29.93,ESE,107,4.0,4.0,49,0.00,,SKC,0.00,153.00,VWS V14.00,2013-06-03 18:16:00,
2013-06-03 13:21:00,64.4,45.4,29.93,SE,128,4.0,5.0,50,0.00,,SKC,0.00,169.00,VWS V14.00,2013-06-03 18:21:00,
2013-06-03 13:26:00,64.4,44.8,29.93,SE,128,3.0,5.0,49,0.00,,SKC,0.00,151.00,VWS V14.00,2013-06-03 18:26:00,
2013-06-03 13:31:00,64.4,46.4,29.93,ESE,110,5.0,5.0,52,0.00,,SKC,0.00,116.00,VWS V14.00,2013-06-03 18:31:00,
2013-06-03 13:38:00,64.2,45.2,29.93,ESE,102,4.0,6.0,50,0.00,,SKC,0.00,123.00,VWS V14.00,2013-06-03 18:38:00,
2013-06-03 13:43:00,64.0,45.5,29.93,ESE,119,5.0,5.0,51,0.00,,SKC,0.00,132.00,VWS V14.00,2013-06-03 18:43:00,
2013-06-03 13:48:00,63.9,46.0,29.93,East,92,2.0,5.0,52,0.00,,SKC,0.00,100.00,VWS V14.00,2013-06-03 18:48:00,
2013-06-03 13:53:00,63.8,44.8,29.93,SE,140,3.0,6.0,50,0.00,,SKC,0.00,98.00,VWS V14.00,2013-06-03 18:53:00,
2013-06-03 13:58:00,63.8,45.3,29.93,ESE,121,2.0,6.0,51,0.00,,SKC,0.00,81.00,VWS V14.00,2013-06-03 18:58:00,
2013-06-03 14:03:00,63.7,45.8,29.92,SE,125,4.0,7.0,52,0.00,,SKC,0.00,127.00,VWS V14.00,2013-06-03 19:03:00,
2013-06-03 14:08:00,63.6,45.2,29.92,SE,128,9.0,10.0,51,0.00,,SKC,0.00,192.00,VWS V14.00,2013-06-03 19:08:00,
2013-06-03 14:13:00,63.8,46.4,29.91,ESE,102,4.0,10.0,53,0.00,,SKC,0.00,174.00,VWS V14.00,2013-06-03 19:13:00,
2013-06-03 14:18:00,63.7,46.3,29.90,East,92,4.0,12.0,53,0.00,,SKC,0.00,149.00,VWS V14.00,2013-06-03 19:18:00,
2013-06-03 14:23:00,63.3,47.8,29.90,ESE,109,8.0,9.0,57,0.00,,SKC,0.00,104.00,VWS V14.00,2013-06-03 19:23:00,
2013-06-03 14:28:00,62.9,46.5,29.90,ESE,110,6.0,11.0,55,0.00,,SKC,0.00,100.00,VWS V14.00,2013-06-03 19:28:00,
2013-06-03 14:33:00,62.7,47.3,29.90,East,96,6.0,13.0,57,0.00,,SKC,0.00,113.00,VWS V14.00,2013-06-03 19:33:00,
2013-06-03 14:38:00,62.5,47.1,29.90,SE,137,5.0,12.0,57,0.00,,SKC,0.00,141.00,VWS V14.00,2013-06-03 19:38:00,
2013-06-03 14:43:00,62.5,48.0,29.91,ESE,123,6.0,9.0,59,0.00,,SKC,0.00,155.00,VWS V14.00,2013-06-03 19:43:00,
2013-06-03 14:48:00,62.5,47.1,29.92,SSE,153,5.0,10.0,57,0.00,,SKC,0.00,130.00,VWS V14.00,2013-06-03 19:48:00,
2013-06-03 14:53:00,62.5,47.1,29.92,SE,136,4.0,11.0,57,0.00,,SKC,0.00,120.00,VWS V14.00,2013-06-03 19:53:00,
2013-06-03 14:58:00,62.5,46.6,29.92,SSE,150,5.0,10.0,56,0.00,,SKC,0.00,116.00,VWS V14.00,2013-06-03 19:58:00,
2013-06-03 15:03:00,62.5,47.1,29.92,ESE,120,1.0,2.0,57,0.00,,SKC,0.00,109.00,VWS V14.00,2013-06-03 20:03:00,
2013-06-03 15:08:00,62.3,47.8,29.92,ESE,119,4.0,4.0,59,0.00,,SKC,0.00,146.00,VWS V14.00,2013-06-03 20:08:00,
2013-06-03 15:13:00,62.3,46.9,29.92,SE,135,3.0,4.0,57,0.00,,SKC,0.00,197.00,VWS V14.00,2013-06-03 20:13:00,
2013-06-03 15:18:00,62.4,47.0,29.92,SE,128,3.0,3.0,57,0.00,,SKC,0.00,241.00,VWS V14.00,2013-06-03 20:18:00,
2013-06-03 15:24:00,62.7,48.6,29.92,SE,137,9.0,13.0,60,0.00,,SKC,0.00,338.00,VWS V14.00,2013-06-03 20:24:00,
2013-06-03 15:29:00,63.2,46.8,29.92,East,99,5.0,5.0,55,0.00,,SKC,0.00,485.00,VWS V14.00,2013-06-03 20:29:00,
2013-06-03 15:34:00,63.8,47.3,29.92,East,96,4.0,6.0,55,0.00,,SKC,0.00,475.00,VWS V14.00,2013-06-03 20:34:00,
2013-06-03 15:39:00,64.4,48.4,29.92,ESE,105,9.0,11.0,56,0.00,,SKC,0.00,663.00,VWS V14.00,2013-06-03 20:39:00,
2013-06-03 15:44:00,65.0,48.9,29.91,East,97,4.0,5.0,56,0.00,,SKC,0.00,548.00,VWS V14.00,2013-06-03 20:44:00,
2013-06-03 15:49:00,65.4,48.8,29.90,SE,124,7.0,10.0,55,0.00,,SKC,0.00,726.00,VWS V14.00,2013-06-03 20:49:00,
2013-06-03 15:54:00,66.0,47.4,29.89,East,94,11.0,13.0,51,0.00,,SKC,0.00,949.00,VWS V14.00,2013-06-03 20:54:00,
2013-06-03 15:59:00,66.3,48.7,29.89,ESE,103,13.0,13.0,53,0.00,,SKC,0.00,949.00,VWS V14.00,2013-06-03 20:59:00,
2013-06-03 16:04:00,66.5,46.2,29.89,East,94,10.0,10.0,48,0.00,,SKC,0.00,921.00,VWS V14.00,2013-06-03 21:04:00,
2013-06-03 16:09:00,66.5,47.3,29.89,ENE,61,8.0,9.0,50,0.00,,SKC,0.00,304.00,VWS V14.00,2013-06-03 21:09:00,
2013-06-03 16:14:00,65.8,46.1,29.88,ESE,118,9.0,10.0,49,0.00,,SKC,0.00,290.00,VWS V14.00,2013-06-03 21:14:00,
2013-06-03 16:19:00,65.2,45.0,29.88,ENE,73,7.0,11.0,48,0.00,,SKC,0.00,241.00,VWS V14.00,2013-06-03 21:19:00,
2013-06-03 16:24:00,64.7,45.1,29.87,East,92,12.0,14.0,49,0.00,,SKC,0.00,153.00,VWS V14.00,2013-06-03 21:24:00,
2013-06-03 16:29:00,64.3,45.3,29.87,East,86,10.0,14.0,50,0.00,,SKC,0.00,102.00,VWS V14.00,2013-06-03 21:29:00,
2013-06-03 16:34:00,64.0,45.5,29.87,East,99,4.0,7.0,51,0.00,,SKC,0.00,83.00,VWS V14.00,2013-06-03 21:34:00,
2013-06-03 16:39:00,63.8,44.8,29.87,ESE,111,7.0,17.0,50,0.00,,SKC,0.00,67.00,VWS V14.00,2013-06-03 21:39:00,
2013-06-03 16:44:00,63.7,44.7,29.85,East,96,10.0,10.0,50,0.00,,SKC,0.00,44.00,VWS V14.00,2013-06-03 21:44:00,
2013-06-03 16:49:00,63.3,43.8,29.84,East,98,11.0,13.0,49,0.00,,SKC,0.00,79.00,VWS V14.00,2013-06-03 21:49:00,
2013-06-03 16:54:00,63.3,44.4,29.84,ESE,116,17.0,17.0,50,0.00,,SKC,0.00,214.00,VWS V14.00,2013-06-03 21:54:00,
2013-06-03 16:59:00,63.2,44.8,29.84,ESE,103,6.0,11.0,51,0.00,,SKC,0.00,276.00,VWS V14.00,2013-06-03 21:59:00,
2013-06-03 17:04:00,63.6,46.2,29.86,ESE,107,3.0,10.0,53,0.00,,SKC,0.00,531.00,VWS V14.00,2013-06-03 22:04:00,
2013-06-03 17:09:00,64.7,45.7,29.87,ESE,105,11.0,13.0,50,0.00,,SKC,0.00,742.00,VWS V14.00,2013-06-03 22:09:00,
2013-06-03 17:14:00,65.7,44.9,29.87,ESE,112,12.0,16.0,47,0.00,,SKC,0.00,693.00,VWS V14.00,2013-06-03 22:14:00,
2013-06-03 17:19:00,66.0,45.8,29.88,ESE,102,7.0,12.0,48,0.00,,SKC,0.00,642.00,VWS V14.00,2013-06-03 22:19:00,
2013-06-03 17:24:00,66.3,44.9,29.88,ESE,121,10.0,11.0,46,0.00,,SKC,0.00,557.00,VWS V14.00,2013-06-03 22:24:00,
2013-06-03 17:29:00,66.3,44.9,29.87,ESE,113,11.0,14.0,46,0.00,,SKC,0.00,573.00,VWS V14.00,2013-06-03 22:29:00,
2013-06-03 17:34:00,66.1,44.2,29.87,East,86,12.0,16.0,45,0.00,,SKC,0.00,496.00,VWS V14.00,2013-06-03 22:34:00,
2013-06-03 17:39:00,65.7,44.4,29.88,ESE,115,10.0,18.0,46,0.00,,SKC,0.00,315.00,VWS V14.00,2013-06-03 22:39:00,
2013-06-03 17:44:00,65.5,45.8,29.87,ESE,108,9.0,16.0,49,0.00,,SKC,0.00,552.00,VWS V14.00,2013-06-03 22:44:00,
2013-06-03 17:50:00,65.7,46.0,29.87,South,176,6.0,13.0,49,0.00,,SKC,0.00,244.00,VWS V14.00,2013-06-03 22:50:00,
2013-06-03 17:55:00,65.7,46.0,29.87,East,98,7.0,14.0,49,0.00,,SKC,0.00,174.00,VWS V14.00,2013-06-03 22:55:00,
2013-06-03 18:00:00,65.2,45.6,29.88,East,98,11.0,15.0,49,0.00,,SKC,0.00,118.00,VWS V14.00,2013-06-03 23:00:00,
2013-06-03 18:05:00,64.9,45.3,29.87,ESE,113,6.0,9.0,49,0.00,,SKC,0.00,102.00,VWS V14.00,2013-06-03 23:05:00,
2013-06-03 18:10:00,64.7,44.6,29.88,East,92,6.0,12.0,48,0.00,,SKC,0.00,93.00,VWS V14.00,2013-06-03 23:10:00,
2013-06-03 18:15:00,64.5,43.3,29.88,East,98,4.0,12.0,46,0.00,,SKC,0.00,67.00,VWS V14.00,2013-06-03 23:15:00,
2013-06-03 18:20:00,64.4,43.8,29.88,East,86,10.0,15.0,47,0.00,,SKC,0.00,54.00,VWS V14.00,2013-06-03 23:20:00,
2013-06-03 18:25:00,64.3,43.7,29.88,ESE,103,9.0,15.0,47,0.00,,SKC,0.00,58.00,VWS V14.00,2013-06-03 23:25:00,
2013-06-03 18:30:00,64.2,43.6,29.88,ESE,123,12.0,14.0,47,0.00,,SKC,0.00,49.00,VWS V14.00,2013-06-03 23:30:00,
2013-06-03 18:35:00,64.2,44.1,29.88,SE,125,6.0,10.0,48,0.00,,SKC,0.00,37.00,VWS V14.00,2013-06-03 23:35:00,
2013-06-03 18:40:00,64.1,44.0,29.88,ESE,121,9.0,13.0,48,0.00,,SKC,0.00,33.00,VWS V14.00,2013-06-03 23:40:00,
2013-06-03 18:45:00,64.0,43.9,29.88,East,93,9.0,11.0,48,0.00,,SKC,0.00,40.00,VWS V14.00,2013-06-03 23:45:00,
2013-06-03 18:50:00,64.0,44.5,29.88,ESE,106,8.0,11.0,49,0.00,,SKC,0.00,53.00,VWS V14.00,2013-06-03 23:50:00,
2013-06-03 18:55:00,64.0,45.0,29.88,ESE,111,10.0,12.0,50,0.00,,SKC,0.00,60.00,VWS V14.00,2013-06-03 23:55:00,
2013-06-03 19:00:00,63.9,44.9,29.88,ESE,119,5.0,14.0,50,0.00,,SKC,0.00,63.00,VWS V14.00,2013-06-04 00:00:00,
2013-06-03 19:05:00,63.9,44.9,29.88,East,101,4.0,11.0,50,0.00,,SKC,0.00,83.00,VWS V14.00,2013-06-04 00:05:00,
2013-06-03 19:10:00,63.8,45.3,29.88,ESE,119,6.0,11.0,51,0.00,,SKC,0.00,67.00,VWS V14.00,2013-06-04 00:10:00,
2013-06-03 19:15:00,63.8,45.3,29.89,ESE,118,7.0,12.0,51,0.00,,SKC,0.00,51.00,VWS V14.00,2013-06-04 00:15:00,
2013-06-03 19:20:00,63.7,45.8,29.89,ENE,78,4.0,10.0,52,0.00,,SKC,0.00,35.00,VWS V14.00,2013-06-04 00:20:00,
2013-06-03 19:25:00,63.6,46.2,29.89,ESE,121,5.0,7.0,53,0.00,,SKC,0.00,25.00,VWS V14.00,2013-06-04 00:25:00,
2013-06-03 19:30:00,63.3,47.3,29.89,ESE,112,6.0,11.0,56,0.00,,SKC,0.00,21.00,VWS V14.00,2013-06-04 00:30:00,
2013-06-03 19:35:00,62.8,47.4,29.89,ESE,116,5.0,10.0,57,0.00,,SKC,0.00,19.00,VWS V14.00,2013-06-04 00:35:00,
2013-06-03 19:40:00,62.5,47.1,29.89,East,98,5.0,12.0,57,0.00,,SKC,0.00,18.00,VWS V14.00,2013-06-04 00:40:00,
2013-06-03 19:45:00,62.2,47.3,29.89,East,91,7.0,12.0,58,0.00,,SKC,0.00,16.00,VWS V14.00,2013-06-04 00:45:00,
2013-06-03 19:50:00,62.0,47.1,29.88,ESE,108,8.0,10.0,58,0.00,,SKC,0.00,18.00,VWS V14.00,2013-06-04 00:50:00,
2013-06-03 19:55:00,61.9,47.4,29.89,NE,45,4.0,9.0,59,0.00,,SKC,0.00,14.00,VWS V14.00,2013-06-04 00:55:00,
2013-06-03 20:00:00,61.9,47.0,29.89,East,95,7.0,11.0,58,0.00,,SKC,0.00,12.00,VWS V14.00,2013-06-04 01:00:00,
2013-06-03 20:05:00,61.8,46.9,29.89,East,101,5.0,11.0,58,0.00,,SKC,0.00,11.00,VWS V14.00,2013-06-04 01:05:00,
2013-06-03 20:10:00,61.7,47.2,29.89,ESE,107,3.0,7.0,59,0.00,,SKC,0.00,9.00,VWS V14.00,2013-06-04 01:10:00,
2013-06-03 20:15:00,61.7,46.8,29.90,ESE,106,2.0,11.0,58,0.00,,SKC,0.00,7.00,VWS V14.00,2013-06-04 01:15:00,
2013-06-03 20:20:00,61.6,47.2,29.90,East,81,4.0,5.0,59,0.00,,SKC,0.00,5.00,VWS V14.00,2013-06-04 01:20:00,
2013-06-03 20:25:00,61.6,47.2,29.90,East,87,3.0,7.0,59,0.00,,SKC,0.00,0.00,VWS V14.00,2013-06-04 01:25:00,
2013-06-03 20:31:00,61.5,47.1,29.89,ESE,107,5.0,11.0,59,0.00,,SKC,0.00,0.00,VWS V14.00,2013-06-04 01:31:00,
2013-06-03 20:36:00,61.5,47.1,29.90,East,80,1.0,15.0,59,0.00,,SKC,0.00,0.00,VWS V14.00,2013-06-04 01:36:00,
2013-06-03 20:41:00,61.4,47.0,29.89,ENE,69,6.0,9.0,59,0.00,,SKC,0.00,0.00,VWS V14.00,2013-06-04 01:41:00,
2013-06-03 20:46:00,61.4,47.0,29.90,East,88,7.0,7.0,59,0.00,,SKC,0.00,0.00,VWS V14.00,2013-06-04 01:46:00,
2013-06-03 20:51:00,61.4,47.0,29.90,East,101,2.0,10.0,59,0.00,,SKC,0.00,0.00,VWS V14.00,2013-06-04 01:51:00,
2013-06-03 20:56:00,61.3,46.9,29.90,East,96,6.0,7.0,59,0.00,,SKC,0.00,0.00,VWS V14.00,2013-06-04 01:56:00,
2013-06-03 21:01:00,61.3,46.9,29.90,ESE,108,7.0,9.0,59,0.00,,SKC,0.00,0.00,VWS V14.00,2013-06-04 02:01:00,
2013-06-03 21:06:00,61.3,46.9,29.91,East,80,4.0,7.0,59,0.00,,SKC,0.00,0.00,VWS V14.00,2013-06-04 02:06:00,
2013-06-03 21:11:00,61.3,46.9,29.91,East,85,1.0,7.0,59,0.00,,SKC,0.00,0.00,VWS V14.00,2013-06-04 02:11:00,
2013-06-03 21:16:00,61.3,47.3,29.92,ENE,63,2.0,7.0,60,0.00,,SKC,0.00,0.00,VWS V14.00,2013-06-04 02:16:00,
2013-06-03 21:21:00,61.2,47.2,29.92,East,80,5.0,5.0,60,0.00,,SKC,0.00,0.00,VWS V14.00,2013-06-04 02:21:00,
2013-06-03 21:26:00,61.2,47.7,29.92,ENE,71,4.0,9.0,61,0.00,,SKC,0.00,0.00,VWS V14.00,2013-06-04 02:26:00,
2013-06-03 21:31:00,61.1,47.1,29.93,East,98,3.0,8.0,60,0.00,,SKC,0.00,0.00,VWS V14.00,2013-06-04 02:31:00,
2013-06-03 21:36:00,61.1,47.6,29.93,East,93,6.0,9.0,61,0.00,,SKC,0.00,0.00,VWS V14.00,2013-06-04 02:36:00,
2013-06-03 21:41:00,61.0,47.5,29.93,East,96,3.0,7.0,61,0.00,,SKC,0.00,0.00,VWS V14.00,2013-06-04 02:41:00,
2013-06-03 21:46:00,61.0,47.5,29.93,ESE,105,2.0,6.0,61,0.00,,SKC,0.00,0.00,VWS V14.00,2013-06-04 02:46:00,
2013-06-03 21:51:00,60.9,47.4,29.93,ESE,106,2.0,6.0,61,0.00,,SKC,0.00,0.00,VWS V14.00,2013-06-04 02:51:00,
2013-06-03 21:56:00,60.9,47.8,29.93,ESE,116,5.0,7.0,62,0.00,,SKC,0.00,0.00,VWS V14.00,2013-06-04 02:56:00,
2013-06-03 22:01:00,60.9,47.8,29.93,East,99,4.0,7.0,62,0.00,,SKC,0.00,0.00,VWS V14.00,2013-06-04 03:01:00,
2013-06-03 22:06:00,60.8,47.7,29.93,SE,139,6.0,6.0,62,0.00,,SKC,0.00,0.00,VWS V14.00,2013-06-04 03:06:00,
2013-06-03 22:11:00,60.8,47.7,29.93,East,80,2.0,9.0,62,0.00,,SKC,0.00,0.00,VWS V14.00,2013-06-04 03:11:00,
2013-06-03 22:16:00,60.7,47.6,29.93,SE,126,4.0,6.0,62,0.00,,SKC,0.00,0.00,VWS V14.00,2013-06-04 03:16:00,
2013-06-03 22:21:00,60.7,48.0,29.94,ESE,107,5.0,9.0,63,0.00,,SKC,0.00,0.00,VWS V14.00,2013-06-04 03:21:00,
2013-06-03 22:26:00,60.7,48.0,29.93,ESE,103,6.0,7.0,63,0.00,,SKC,0.00,0.00,VWS V14.00,2013-06-04 03:26:00,
2013-06-03 22:31:00,60.6,48.0,29.93,ESE,103,9.0,12.0,63,0.00,,SKC,0.00,0.00,VWS V14.00,2013-06-04 03:31:00,
2013-06-03 22:36:00,60.7,48.0,29.92,ESE,113,4.0,10.0,63,0.00,,SKC,0.00,0.00,VWS V14.00,2013-06-04 03:36:00,
2013-06-03 22:42:00,60.7,48.0,29.92,East,94,5.0,9.0,63,0.00,,SKC,0.00,0.00,VWS V14.00,2013-06-04 03:42:00,
2013-06-03 22:47:00,60.7,48.0,29.92,ESE,114,8.0,15.0,63,0.00,,SKC,0.00,0.00,VWS V14.00,2013-06-04 03:47:00,
2013-06-03 22:52:00,60.8,47.7,29.92,ENE,74,4.0,11.0,62,0.00,,SKC,0.00,0.00,VWS V14.00,2013-06-04 03:52:00,
2013-06-03 22:57:00,60.8,47.7,29.92,ENE,78,7.0,12.0,62,0.00,,SKC,0.00,0.00,VWS V14.00,2013-06-04 03:57:00,
2013-06-03 23:02:00,60.9,47.8,29.92,ESE,119,10.0,11.0,62,0.00,,SKC,0.00,0.00,VWS V14.00,2013-06-04 04:02:00,
2013-06-03 23:03:00,60.9,47.8,29.92,East,99,3.0,11.0,62,0.00,,SKC,0.00,0.00,VWS V14.00,2013-06-04 04:03:00,
2013-06-03 23:05:00,60.9,47.8,29.92,East,97,6.0,10.0,62,0.00,,SKC,0.00,0.00,VWS V14.00,2013-06-04 04:05:00,
2013-06-03 23:08:00,60.9,47.8,29.92,East,86,4.0,12.0,62,0.00,,SKC,0.00,0.00,VWS V14.00,2013-06-04 04:08:00,
2013-06-03 23:13:00,60.9,47.8,29.92,SE,133,17.0,17.0,62,0.00,,SKC,0.00,0.00,VWS V14.00,2013-06-04 04:13:00,
2013-06-03 23:18:00,60.9,47.8,29.92,ESE,108,10.0,17.0,62,0.00,,SKC,0.00,0.00,VWS V14.00,2013-06-04 04:18:00,
2013-06-03 23:23:00,60.9,48.2,29.92,ESE,113,4.0,12.0,63,0.00,,SKC,0.00,0.00,VWS V14.00,2013-06-04 04:23:00,
2013-06-03 23:28:00,60.8,47.7,29.91,SE,144,6.0,15.0,62,0.00,,SKC,0.00,0.00,VWS V14.00,2013-06-04 04:28:00,
2013-06-03 23:33:00,60.8,48.1,29.90,ENE,65,10.0,16.0,63,0.00,,SKC,0.00,0.00,VWS V14.00,2013-06-04 04:33:00,
2013-06-03 23:38:00,60.8,48.1,29.90,ENE,75,7.0,13.0,63,0.00,,SKC,0.00,0.00,VWS V14.00,2013-06-04 04:38:00,
2013-06-03 23:43:00,60.7,48.0,29.90,ESE,103,9.0,14.0,63,0.00,,SKC,0.00,0.00,VWS V14.00,2013-06-04 04:43:00,
2013-06-03 23:48:00,60.7,48.0,29.90,ESE,119,10.0,11.0,63,0.00,,SKC,0.00,0.00,VWS V14.00,2013-06-04 04:48:00,
2013-06-03 23:53:00,60.6,48.0,29.90,East,96,6.0,14.0,63,0.00,,SKC,0.00,0.00,VWS V14.00,2013-06-04 04:53:00,
2013-06-03 23:58:00,60.6,48.0,29.90,ENE,69,12.0,15.0,63,0.00,,SKC,0.00,0.00,VWS V14.00,2013-06-04 04:58:00,